Location: Newark
(9.4667°S, 159.8167°E)
Time: 22:21:28
(UTC+00:00)

Vanguard 1 - Pass Details

Date: 16 November 2019
Orbit: 652 x 3831 km, 34.2° (Epoch: 05 December)

Event Time Altitude Azimuth Distance (km) Brightness Sun altitude
Rises 07:25:51 0° 345° (NNW) 3,463 12.8 -1.7°
Reaches altitude 10° 07:28:49 10° 4° (N) 2,826 12.2 -2.4°
Maximum altitude 07:33:39 20° 49° (NE) 2,721 11.8 -3.6°
Drops below altitude 10° 07:40:28 10° 91° (E) 4,208 12.7 -5.1°
Sets 07:46:19 0° 105° (ESE) 5,885 13.5 -6.5°
